Theta_e
333 332 324 320 309 309 308 311 314 310 310 316 317 315 317 318 315 314 337 342 340 352 354 360 363 365 367 366 365 364 363 362 363 363 362 362 363 363 362 361 360 358 355 353 350 347 344 340 337
328 328 323 316 305 304 307 315 310 313 314 315 316 316 315 314 322 327 333 344 340 355 357 355 363 365 366 366 365 363 363 363 362 362 362 363 363 362 361 360 358 356 353 350 347 344 341 338 336
328 326 317 311 306 304 307 311 312 314 314 313 314 318 318 318 327 331 340 345 341 353 357 356 362 364 365 365 364 363 363 363 363 362 362 363 362 361 360 359 358 354 351 348 345 342 340 339 338
324 323 317 307 305 308 309 310 313 312 313 315 315 314 321 328 327 335 342 347 345 349 355 359 360 363 364 364 364 363 363 363 363 363 363 362 362 360 359 358 357 355 350 347 344 342 341 341 340
323 318 309 307 306 310 311 312 312 311 312 313 315 314 318 327 332 336 344 346 346 346 354 361 360 362 363 364 363 363 363 362 362 362 362 362 360 358 358 357 356 355 352 347 345 344 345 343 341
316 317 306 304 307 311 310 312 314 313 314 314 314 316 320 329 327 334 345 346 346 345 352 361 359 360 360 361 361 360 360 361 361 361 360 360 358 357 357 356 355 354 352 350 347 346 346 345 343
313 312 306 307 308 310 311 313 313 314 315 315 319 313 321 325 326 329 344 345 343 345 348 359 355 359 360 359 359 359 358 358 358 357 357 357 357 356 356 354 354 353 352 351 349 349 347 346 344
315 313 307 308 307 308 314 314 315 315 314 322 320 313 317 324 326 328 340 343 344 344 345 354 352 355 355 356 359 358 358 358 357 356 356 356 356 355 355 353 353 353 352 351 350 349 348 347 346
317 307 305 307 308 310 316 313 316 318 317 319 320 320 322 324 325 326 332 339 340 341 344 351 349 351 351 349 356 358 358 357 357 356 356 354 347 350 351 348 352 353 352 351 351 349 349 347 344
309 306 306 312 313 312 314 314 315 313 315 317 318 322 324 323 322 322 325 333 337 339 341 346 352 350 350 344 353 353 352 352 353 351 354 350 350 351 345 348 353 352 352 352 351 350 349 344 335
309 304 309 312 314 315 314 314 317 314 311 314 316 320 320 320 321 321 322 326 336 340 340 343 355 359 352 346 349 349 347 349 351 352 356 355 349 352 347 347 347 347 349 341 344 342 340 338 337
305 308 309 310 313 312 311 315 314 315 315 316 318 321 319 317 318 319 320 323 331 337 340 342 349 355 361 346 346 348 344 349 348 350 359 358 351 357 356 346 348 353 343 345 342 341 345 342 340
305 307 309 310 310 311 313 311 311 312 316 318 317 320 319 318 318 320 322 324 329 334 340 341 348 357 359 364 349 350 348 348 348 350 355 354 352 358 354 354 347 348 345 344 345 342 344 342 342
306 305 306 308 307 309 308 308 309 311 314 313 314 316 318 318 317 318 320 322 330 334 340 344 345 358 359 359 365 357 356 353 351 350 354 357 355 358 350 352 347 346 344 343 344 345 343 342 341
305 301 304 305 306 305 308 303 304 310 312 311 311 313 316 318 318 317 319 323 326 334 340 348 349 351 359 361 360 356 353 350 351 351 362 360 360 360 357 348 347 346 349 358 352 349 345 341 341
301 301 297 303 304 305 304 298 306 310 310 308 309 310 312 316 317 318 318 321 325 326 330 344 342 348 354 354 356 351 351 352 350 349 351 357 360 359 358 347 346 346 348 344 344 344 341 340 341
300 295 297 300 304 302 302 299 305 308 307 307 309 309 310 313 315 318 319 320 322 327 330 337 348 346 353 355 354 355 357 350 349 348 348 355 356 356 355 349 347 356 346 344 345 342 345 343 344
296 297 298 298 302 302 300 300 305 307 307 306 308 309 309 311 313 316 318 319 323 327 331 333 340 354 352 354 355 349 349 347 349 347 346 351 353 353 355 348 350 350 343 343 342 349 346 344 346
299 298 297 300 303 299 300 301 303 306 307 306 307 308 309 310 313 315 316 317 320 326 328 331 332 343 348 349 345 345 344 346 346 346 346 350 350 348 351 346 349 348 345 342 352 347 344 344 350
298 296 296 299 301 300 299 299 303 305 305 307 307 308 308 309 311 312 314 317 318 320 331 330 329 334 339 349 345 345 343 344 345 347 348 348 348 351 351 347 349 349 342 350 348 348 343 345 349
296 295 296 296 299 300 298 296 299 303 305 306 307 309 309 310 310 311 312 316 318 320 320 323 328 330 336 343 347 351 350 350 345 342 341 346 347 350 350 349 347 350 347 345 347 347 352 339 348
294 300 298 296 294 290 298 289 298 301 301 303 305 307 308 309 310 311 313 315 317 317 319 321 326 329 332 335 339 346 349 348 348 347 347 348 346 349 347 349 346 347 347 348 349 352 352 354 345
295 298 297 296 294 294 294 292 296 301 299 301 304 306 308 310 310 311 312 314 315 316 320 322 325 328 330 332 341 334 338 339 348 352 358 359 353 350 347 344 345 347 351 353 355 358 361 352 349
300 297 297 297 295 288 293 293 294 297 299 301 303 305 306 309 311 311 312 313 315 317 317 320 323 325 328 329 331 336 337 339 336 340 346 352 349 352 350 350 353 355 353 355 360 356 360 357 355
298 295 288 287 288 287 295 293 295 300 301 302 302 304 306 310 311 311 311 312 314 315 316 318 320 324 325 326 328 331 337 337 342 342 336 344 348 352 358 358 357 355 359 361 360 360 362 360 354
295 294 288 282 284 286 295 289 295 302 304 303 304 305 307 309 310 311 312 312 313 314 316 317 319 321 324 326 327 329 334 328 330 336 336 334 336 344 364 363 358 359 361 362 357 358 358 360 356
294 291 297 290 292 288 292 295 300 302 301 303 303 304 305 308 310 310 312 313 313 315 316 318 319 321 323 325 328 330 330 334 333 341 344 338 346 341 348 360 360 359 359 362 363 357 360 358 357
297 299 290 291 282 281 288 290 290 298 300 302 302 303 305 308 309 310 311 312 314 316 316 318 321 321 323 324 325 326 329 329 333 338 340 342 346 352 349 352 356 358 359 362 363 358 357 354 352
294 293 293 294 291 284 283 288 299 299 301 301 302 304 306 307 308 310 310 312 314 315 315 317 317 319 320 321 323 327 328 329 331 334 336 340 345 348 348 349 349 351 354 360 360 357 354 352 355
298 295 295 288 287 290 288 288 301 302 303 303 303 306 307 308 309 310 311 312 313 313 314 315 316 316 318 320 321 322 327 330 333 333 334 339 342 347 348 347 345 347 352 356 356 353 349 352 352
Wind_Speed
17 12 7 8 9 8 17 19 4 3 5 6 7 6 11 15 11 6 10 10 8 19 19 18 20 17 17 15 15 15 15 14 14 14 13 13 12 13 12 12 11 10 11 10 9 8 8 8 7
11 10 8 7 9 13 12 17 5 11 11 4 7 11 12 13 7 6 10 11 5 18 18 19 16 18 15 15 16 16 16 15 14 14 14 13 12 13 13 12 12 11 10 9 9 8 8 7 7
13 8 10 8 12 16 10 7 1 4 3 5 5 2 7 5 14 11 15 10 2 15 17 18 17 20 17 13 13 17 17 16 15 15 14 14 13 13 13 11 11 11 10 9 8 8 7 7 6
7 8 7 11 17 19 11 12 13 6 5 5 4 5 6 11 9 14 14 12 6 15 17 21 18 19 18 15 12 13 14 16 16 15 15 14 13 12 12 11 10 10 10 9 9 8 8 7 6
9 8 13 16 20 17 12 9 9 10 6 6 5 9 1 9 12 15 12 8 12 16 17 21 19 18 20 17 12 10 13 13 13 14 14 15 13 12 11 11 11 10 10 9 8 8 7 7 6
11 11 16 17 20 16 11 14 10 10 10 5 5 5 7 8 15 13 12 10 9 17 18 19 19 16 18 17 15 10 7 9 10 11 12 13 12 12 11 10 10 9 9 8 9 9 8 7 7
18 15 19 22 21 17 12 12 15 15 10 1 6 5 4 13 15 14 9 8 9 17 18 18 20 17 15 16 14 12 9 7 7 7 8 9 10 10 10 9 8 7 7 7 8 8 8 8 8
15 17 28 22 20 24 14 13 15 18 14 11 3 7 2 13 16 13 7 8 10 16 18 18 19 19 17 15 13 13 11 9 8 8 7 7 9 8 9 8 9 8 7 7 7 8 8 8 8
19 20 22 28 26 20 17 15 13 17 24 9 9 11 10 7 15 12 10 3 8 15 17 17 18 18 18 17 14 13 13 11 10 10 8 9 9 11 12 11 13 10 9 8 8 9 9 9 10
21 18 28 27 22 23 19 20 17 15 20 23 18 14 11 6 15 15 9 7 7 11 17 17 16 17 17 15 16 15 14 12 11 11 12 10 11 10 11 11 12 10 11 10 9 9 8 9 10
21 25 25 25 27 25 22 12 19 18 16 18 21 17 5 13 16 12 13 6 2 10 12 15 16 13 16 14 12 9 9 9 9 14 11 11 9 8 8 6 8 8 11 8 11 10 9 12 10
25 25 23 26 28 19 20 13 23 14 19 6 11 13 11 14 14 14 15 5 6 11 13 12 18 13 12 11 12 12 11 10 10 12 13 8 8 7 6 7 9 8 8 9 9 8 9 11 11
21 24 22 21 21 22 17 19 22 21 17 8 14 20 20 15 14 15 14 6 5 5 7 13 9 12 10 10 10 10 11 11 12 12 13 11 10 7 8 7 8 7 8 8 7 8 7 9 11
14 16 21 22 17 22 21 20 23 23 22 18 15 17 18 14 12 11 11 14 4 5 6 7 14 10 8 11 8 8 8 10 11 10 11 15 10 8 9 9 9 9 8 8 7 8 8 8 10
12 15 16 19 17 18 17 25 27 22 21 18 12 18 17 16 12 8 6 5 3 1 4 6 8 11 12 12 11 8 8 10 10 9 9 13 11 9 9 9 8 8 7 6 6 6 6 8 9
15 18 18 20 23 20 20 23 22 22 24 14 18 18 14 14 13 9 3 3 1 3 3 4 5 11 14 12 11 7 8 9 9 10 10 12 14 13 11 10 8 8 6 7 7 7 8 9 9
18 15 21 17 5 8 19 20 24 8 8 12 13 13 13 10 11 10 7 6 2 4 4 3 5 12 15 13 11 10 9 10 9 10 8 14 13 14 11 9 8 8 8 8 6 8 8 8 9
14 18 16 9 16 12 15 19 18 13 13 15 15 15 13 11 10 11 6 4 6 4 6 8 3 4 3 10 8 9 10 9 8 10 10 12 12 14 12 10 9 8 8 8 9 7 7 9 11
13 16 14 6 10 5 14 17 18 17 17 16 16 16 15 15 13 11 6 2 3 5 4 7 4 4 4 4 7 10 9 6 8 10 10 13 14 15 14 10 10 9 9 12 11 10 11 8 9
14 16 16 15 9 9 16 19 19 18 17 17 17 18 17 14 11 10 10 6 1 2 5 4 2 3 3 9 6 4 7 7 9 8 9 12 13 11 11 11 9 10 10 13 10 10 8 9 8
16 16 15 14 8 10 18 23 25 26 25 17 15 15 12 13 8 8 9 7 5 4 2 1 1 1 5 5 3 7 5 2 4 8 10 11 11 11 12 9 7 9 10 11 11 10 12 8 9
15 11 12 9 11 13 2 12 9 7 9 10 9 7 10 10 12 9 10 10 6 4 2 2 2 3 6 2 7 6 9 8 10 13 11 11 15 16 14 12 9 10 9 13 11 11 12 10 11
12 3 9 13 14 16 19 14 14 18 16 12 9 9 8 7 6 5 5 3 3 3 1 2 3 4 3 4 5 6 10 10 11 11 11 10 11 17 16 16 18 16 12 13 14 11 13 10 11
10 9 15 17 16 17 20 18 14 13 15 16 9 8 5 6 6 4 1 3 4 3 4 2 3 4 5 5 6 8 10 9 10 10 8 11 11 10 16 18 13 12 12 17 11 13 12 12 10
13 13 13 16 15 15 5 6 12 8 6 5 2 4 5 8 8 7 5 5 5 6 7 5 6 5 5 7 8 8 10 9 11 12 10 12 9 11 12 11 12 13 17 14 13 13 13 13 11
12 14 12 8 11 5 11 8 12 8 10 2 5 6 6 8 6 5 6 6 8 8 9 8 9 9 9 8 9 9 10 9 10 11 10 10 11 11 7 16 16 16 15 16 14 11 11 12 11
11 11 10 13 20 15 15 16 13 11 8 7 8 6 5 8 7 7 9 8 8 8 8 11 11 10 11 11 8 9 10 11 11 12 11 10 10 11 12 9 14 15 16 14 14 11 12 12 10
12 9 6 8 13 18 16 17 13 21 17 10 5 5 3 5 8 11 13 13 11 10 11 11 11 13 13 12 12 11 11 11 11 11 12 12 12 11 12 11 11 13 14 15 13 12 12 11 10
11 17 17 17 10 7 12 6 12 1 6 2 4 4 7 11 12 14 14 11 12 13 13 13 14 14 13 13 12 12 12 12 12 11 12 12 13 14 15 14 14 16 15 14 13 13 13 14 12
15 16 15 7 14 12 15 18 12 9 5 4 7 14 12 9 11 14 13 13 14 14 16 16 15 16 14 14 15 13 12 13 12 12 12 13 14 13 14 14 15 14 14 14 15 15 14 15 14
Wind_Direction
282 261 290 259 240 224 257 239 282 73 243 250 342 274 246 337 351 29 82 42 90 128 153 167 144 148 150 155 153 152 152 156 156 152 147 143 145 139 133 130 130 137 138 138 139 131 125 123 123
298 290 244 277 250 242 230 251 150 247 69 15 261 243 250 267 54 18 341 28 92 127 153 171 159 147 151 162 157 155 157 157 157 152 150 148 148 141 142 140 143 147 146 146 144 145 138 134 131
261 271 276 236 236 256 279 7 174 124 93 252 253 323 352 342 37 355 337 331 172 140 161 163 168 147 150 163 167 159 159 156 157 158 155 152 153 148 149 150 148 153 155 155 154 149 141 139 135
261 230 238 252 249 220 263 337 3 287 200 215 323 253 146 83 7 343 327 292 195 161 169 145 168 152 151 164 170 167 161 157 158 160 160 156 154 152 151 151 153 161 164 164 160 153 153 157 156
241 260 259 240 245 247 229 251 280 300 281 256 179 249 253 81 17 343 329 276 212 178 174 156 166 162 153 158 164 171 163 157 161 161 164 160 156 152 156 156 163 168 166 167 163 159 163 173 179
234 236 249 244 240 235 220 248 248 278 264 266 215 259 267 87 8 343 353 302 198 177 176 159 166 169 156 155 156 159 163 157 160 163 166 160 157 155 159 167 170 169 168 169 171 173 177 185 196
246 243 241 254 259 240 195 206 248 250 287 238 37 276 278 40 351 334 8 304 202 172 179 158 173 175 161 150 149 149 148 150 145 152 157 156 156 158 158 167 169 174 175 180 178 185 191 190 207
240 248 254 246 248 254 181 195 224 249 248 297 279 246 341 23 334 331 24 322 217 176 179 160 173 181 180 172 153 152 149 146 142 141 144 148 147 159 165 169 177 178 183 190 193 198 202 205 213
233 245 244 240 247 248 248 208 193 239 248 251 255 300 314 358 333 335 340 57 239 183 177 163 174 179 186 178 168 154 158 154 147 148 149 157 200 185 179 201 163 180 187 198 201 207 212 216 221
229 238 244 257 248 249 252 246 191 213 242 233 246 246 285 327 333 323 337 6 265 195 181 169 171 182 189 185 169 190 190 196 197 195 187 207 214 194 212 185 166 183 195 202 205 211 221 235 247
220 242 251 247 258 268 263 241 245 207 225 245 244 249 282 317 308 305 313 339 318 234 190 190 163 183 194 199 167 184 192 192 197 207 200 202 204 209 202 180 185 207 203 214 199 204 226 235 250
233 246 250 258 271 272 264 267 268 224 242 253 267 282 311 284 300 302 303 348 255 263 216 214 161 184 204 200 181 180 192 184 195 199 198 200 220 207 219 218 203 192 201 213 233 209 217 222 243
236 246 252 255 272 272 260 252 263 259 249 230 269 242 242 279 285 287 277 271 224 220 248 205 212 178 210 245 188 196 192 185 196 189 194 212 205 207 207 231 232 216 214 204 222 234 233 221 237
238 257 254 258 246 254 256 251 255 249 259 249 251 260 253 245 280 286 290 271 156 241 216 220 190 186 200 232 240 192 189 186 200 201 193 201 214 203 206 219 217 238 231 241 224 219 237 226 248
265 266 260 259 244 245 250 250 247 255 256 250 244 251 253 235 248 264 271 305 338 245 190 237 186 176 200 213 240 211 204 213 196 209 190 184 207 226 213 221 220 230 229 235 255 258 239 258 253
248 243 252 238 223 231 236 255 250 243 231 244 245 252 253 241 241 240 191 281 162 43 28 239 231 192 185 206 220 232 215 209 215 209 201 200 199 221 202 230 227 228 235 229 233 232 236 240 245
224 254 233 242 154 237 222 248 255 158 209 242 251 244 243 232 221 234 193 138 6 10 23 81 152 241 184 192 214 218 229 225 216 221 206 187 209 210 223 220 227 203 223 214 225 227 253 253 242
247 219 234 257 168 212 243 236 254 185 223 237 235 243 222 237 225 224 188 155 119 86 23 37 329 189 213 171 197 238 224 230 235 219 210 203 207 209 214 214 223 200 225 226 207 233 250 247 271
307 288 297 256 223 214 266 266 258 246 226 236 241 235 237 223 229 235 274 253 137 82 31 65 26 4 175 156 207 209 223 229 237 239 223 208 209 208 204 211 199 193 218 233 221 188 212 234 242
261 261 257 262 261 265 273 272 270 261 257 256 247 239 235 225 205 231 226 231 252 319 71 71 48 337 269 201 205 210 202 204 231 238 248 220 230 211 201 222 190 195 208 232 218 213 200 210 237
250 260 264 272 291 295 269 262 257 243 241 246 251 243 242 238 216 230 232 208 228 213 190 159 200 187 243 294 239 200 236 276 239 246 239 219 215 208 216 203 230 195 220 221 223 221 227 226 226
264 272 235 285 268 265 353 286 308 173 211 210 198 195 206 216 215 212 205 209 207 209 187 290 305 286 248 147 276 257 261 224 229 235 222 206 206 212 206 198 193 221 206 240 221 225 237 217 245
283 19 274 264 268 275 262 248 262 242 181 176 187 171 184 189 200 213 180 148 196 215 283 227 263 264 256 236 240 268 248 244 244 238 229 208 199 202 200 205 197 197 210 237 234 233 219 220 230
271 277 256 249 248 248 249 247 245 189 195 173 180 201 190 205 161 174 255 285 257 260 260 219 259 265 295 279 261 244 257 270 277 277 274 207 204 212 205 215 214 203 219 223 227 232 222 216 222
253 249 256 242 218 239 186 203 244 82 130 110 241 269 254 183 196 197 249 283 310 281 277 283 281 287 264 278 284 274 262 253 261 255 263 272 256 206 197 198 214 208 215 223 225 222 218 214 223
233 283 280 275 284 300 150 223 232 209 149 272 262 251 268 261 229 225 267 276 300 308 314 293 285 292 308 298 277 281 273 269 262 253 248 264 257 274 262 189 204 213 213 210 223 210 226 216 205
231 253 307 294 283 273 275 285 151 174 183 197 234 240 281 261 240 268 280 285 288 293 294 291 283 288 284 288 286 271 272 267 274 291 294 267 244 263 276 208 200 212 220 219 206 222 207 221 201
242 242 277 245 256 256 262 255 247 176 188 165 238 231 274 293 282 266 266 268 282 288 284 267 270 281 281 283 285 284 281 265 256 256 263 271 277 270 250 258 220 225 222 222 203 205 209 203 207
210 234 230 252 237 266 281 260 45 80 93 126 235 253 279 294 294 296 287 281 268 274 274 273 270 257 265 273 275 281 285 277 265 257 256 257 254 255 255 237 232 224 221 213 204 209 206 199 205
246 236 264 240 237 236 260 274 281 239 90 81 259 248 279 299 289 306 300 300 298 292 284 279 278 277 264 265 269 271 278 280 268 258 253 255 254 242 233 237 227 224 216 206 204 204 209 195 204